User: anonymous   Login
Location: Unspecified
(0.0000°N, 0.0000°E)
Time: 19:05:47
(UTC+00:00)
Language:

STARLINK-33862 - Orbit

View from above orbital plane
View from above orbital plane
View from above satellite
View from above satellite

Ground track
Ground track

The orbit is defined by the following mean orbital elements,

1 63709U          26145.58879457 +.00000000 +00000-0 +32076-3 0 00000
2 63709  53.1589 222.3368 0000448 106.4029 253.7021 15.30205617    02
Epoch (UTC): 25 May 2026 14:07:51
Eccentricity: 0.0000448
inclination: 53.1589°
perigee height: 475 km
apogee height: 476 km
right ascension of ascending node: 222.3368°
argument of perigee: 106.4029°
revolutions per day: 15.30205617
mean anomaly at epoch: 253.7021°

The dashed part of the orbit path shows where the satellite is in the earth's shadow,  

DLR